Weather History for De Bilt, Netherlands

Change the Weather History Date:

Wednesday, December 25, 2013

  Actual Average Record
Temperature  
Mean Temperature 40 °F -  
Max Temperature 46 °F - - ()
Min Temperature 35 °F - - ()
Degree Days  
Heating Degree Days 24    
Moisture  
Dew Point 40 °F    
Average Humidity 82    
Maximum Humidity 98    
Minimum Humidity 67    
Precipitation  
Precipitation 0.00 in - - ()
Sea Level Pressure  
Sea Level Pressure 29.18 in    
Wind  
Wind Speed 8 mph ()    
Max Wind Speed 16 mph    
Max Gust Speed -    
Visibility 14.1 miles    
Events Rain , Thunderstorm    
T = Trace of Precipitation, MM = Missing Value Source: Averaged Metar Reports

Daily Weather History Graph

Daily Weather History Graph

Search for Another Location

Airport:

Trip Planner

Search our weather history database for the weather conditions in past years. The results will help you decide how hot, cold, wet, or windy it might be!

Date:

Astronomy

Dec. 25, 2013 Rise Set
Actual Time 8:47 AM CET 4:31 PM CET
Civil Twilight 8:06 AM CET 5:12 PM CET
Nautical Twilight 7:22 AM CET 5:56 PM CET
Astronomical Twilight 6:41 AM CET 6:37 PM CET
Moon 12:14 AM CET (12/25) 12:08 PM CET (12/25)
Length of Visible Light 9h 06m
Length of Day
7h 44m
Waning Gibbous, 51% of the Moon is Illuminated
Dec 25
Waning Gibbous
Dec 25
Last Quarter
Jan 1
New
Jan 8
First Quarter
Jan 16
Full

Hourly Weather History & Observations

Time (CET) Temp. Dew Point Humidity Pressure Visibility Wind Dir Wind Speed Gust Speed Precip Events Conditions
12:00 AM 45 °F 42 °F 85% 29.13 in 19 mi South 8.9 mph - -   Partly Cloudy
1:00 AM 45 °F 42 °F 86% 29.09 in 14 mi SSE 6.7 mph - - Rain Light Drizzle
2:00 AM 45 °F 44 °F 93% 29.05 in 7 mi SE 6.7 mph - - Rain Rain
3:00 AM 45 °F 45 °F 98% 29.04 in 6 mi SSE 8.9 mph - - Rain Rain
4:00 AM 46 °F 45 °F 93% 29.03 in 16 mi South 8.9 mph - - Rain Light Drizzle
5:00 AM 46 °F 45 °F 94% 29.02 in 6 mi South 8.9 mph - - Rain Light Drizzle
6:00 AM 47 °F 43 °F 82% 29.06 in 28 mi SW 15.7 mph - - Rain Drizzle
7:00 AM 46 °F 41 °F 78% 29.11 in 25 mi SW 11.2 mph - -   Partly Cloudy
8:00 AM 45 °F 40 °F 75% 29.14 in 17 mi SW 13.4 mph - -   Mostly Cloudy
9:00 AM 44 °F 39 °F 75% 29.17 in 25 mi SSW 11.2 mph - -   Scattered Clouds
10:00 AM 44 °F 39 °F 77% 29.19 in 19 mi SSW 13.4 mph - -   Scattered Clouds
11:00 AM 46 °F 39 °F 67% 29.20 in 19 mi SW 13.4 mph - -   Mostly Cloudy
12:00 PM 46 °F 39 °F 69% 29.20 in 22 mi SSW 11.2 mph - -  
1:00 PM 46 °F 39 °F 69% 29.21 in 19 mi SSW 8.9 mph - -   Partly Cloudy
2:00 PM 46 °F 39 °F 69% 29.22 in 19 mi South 8.9 mph - -   Scattered Clouds
3:00 PM 46 °F 38 °F 67% 29.24 in 19 mi South 11.2 mph - - Thunderstorm Light Thunderstorm
4:00 PM 45 °F 38 °F 70% 29.26 in 22 mi SSW 8.9 mph - -   Partly Cloudy
5:00 PM 44 °F 38 °F 73% 29.27 in 19 mi South 8.9 mph - -   Partly Cloudy
6:00 PM 40 °F 37 °F 85% 29.27 in 14 mi South 4.5 mph - -   Partly Cloudy
7:00 PM 35 °F 34 °F 94% 29.29 in 11 mi SSE 6.7 mph - -   Partly Cloudy
8:00 PM 38 °F 37 °F 94% 29.30 in 10 mi SSE 6.7 mph - -  
9:00 PM 38 °F 37 °F 94% 29.29 in 11 mi SSE 6.7 mph - -  
10:00 PM 39 °F 37 °F 92% 29.30 in 11 mi SSE 6.7 mph - -   Scattered Clouds
11:00 PM 38 °F 37 °F 93% 29.30 in 11 mi SE 6.7 mph - -   Scattered Clouds